ECMWFFLT2_con_mucape_057.txt.gz
CAPE
1052 1282 1304 501 383 607 397 268 447 300 353 772 607 847 1146 1299 1453 1392 1507 1749 1490 1148 1425 1468 1523 1378 1583 1374 1598 1526 1388 1347 1174 1069 1110 1029 1086 1056 1048 1351 1271 1184 904 735 708 533 793 799 830 806 654 891 1725 1684 1648 1149 976 1009 631 526 970 856
811 1211 1435 663 270 657 602 683 466 560 598 806 729 843 1124 1150 1023 1440 1204 942 741 823 1279 1279 1288 1241 1324 1571 1458 1555 1473 1367 1234 1220 1130 1219 1287 1138 1200 1240 1379 1099 903 585 597 225 226 620 162 1005 849 811 1307 1272 955 1180 1158 866 1096 561 1011 1215
938 712 1306 904 822 951 863 637 398 383 631 559 794 1522 1387 1230 1122 749 477 586 637 1167 1394 1323 1391 1171 1036 1167 1356 1519 1442 1424 1460 1388 1318 1416 1314 1288 1323 1350 1271 1122 672 553 658 377 333 170 234 171 324 552 1134 734 1201 1116 593 1032 685 1025 777 1368
882 815 1322 1398 429 878 1102 897 694 922 830 771 1030 1625 1186 1210 1574 638 706 706 914 1211 1316 2010 1473 1332 1218 1332 1490 1496 1275 1375 1432 1502 1418 1358 1407 1387 1480 1325 956 877 893 318 240 390 401 582 389 231 515 842 540 1079 1398 1190 708 654 1090 820 772 1621
885 898 996 1528 1283 1507 1279 1206 1292 1361 1441 1235 1094 1396 1763 1426 767 1043 794 859 786 1152 1406 1428 1472 1329 1235 1128 1104 1213 1396 1132 1456 1242 1589 934 1196 1035 1366 651 410 554 167 233 366 484 550 618 604 352 465 600 659 828 1160 1248 903 988 742 1148 1022 1396
1381 1270 820 1254 1758 1063 1028 899 1106 1703 1457 1438 1075 1107 1251 975 1223 863 668 546 734 961 1274 1612 1629 1758 1461 1389 960 1307 908 1488 977 754 1037 1561 702 632 680 413 177 62 254 278 469 731 360 717 340 322 443 425 492 752 612 799 709 1099 1408 1297 1084 1401
1046 933 1299 815 1113 1738 1083 1162 1241 1275 994 1090 983 889 752 984 1370 1240 666 625 1024 1263 1072 1157 1566 1528 1495 1351 1372 1103 1406 883 1265 1091 971 1692 1193 1216 517 806 579 421 606 579 427 540 492 382 598 443 237 288 363 381 438 380 854 658 1299 1417 1176 1269
1470 1572 1498 1461 1249 824 795 746 1680 1390 1387 1330 991 559 1039 732 1159 1470 842 987 1530 1666 1120 1218 1449 1409 1405 1433 1288 1061 968 797 810 798 1323 1289 1272 1115 1384 999 666 713 795 602 570 716 576 586 208 247 420 187 216 277 508 418 693 995 1131 1516 980 1528
1613 1306 1458 1567 1363 1214 775 788 1093 851 974 1156 1131 1265 1001 833 1446 1598 1729 988 1227 1508 1244 1515 1453 1491 1706 1514 1382 1160 1447 961 928 832 1480 1025 1634 670 907 949 1075 893 774 1082 1076 881 691 671 578 227 312 264 308 127 285 405 714 761 1266 1616 1139 1252
1648 1318 1352 1446 974 1115 1097 1311 810 871 1348 1000 1111 1364 1280 899 1516 1405 1297 1157 1294 1383 1529 1299 1459 1595 1527 1296 1229 916 699 735 837 829 970 669 1330 1093 871 975 1332 867 1593 1325 811 990 721 792 508 413 170 260 105 295 354 308 332 339 654 1335 1223 1453
1349 1225 1112 902 714 1090 1122 496 1280 1562 1056 1445 1402 1078 1309 1519 938 844 1485 937 882 828 788 1047 1340 1230 1384 1180 1038 1247 997 1152 838 730 1192 1678 1083 742 952 1532 1479 1250 1598 2025 1248 1529 1285 948 914 248 174 163 168 239 411 177 302 282 651 1078 1644 1470
1525 1286 799 806 922 749 906 1490 1522 1443 1480 1472 1719 1497 1376 1350 1009 701 888 952 636 551 596 890 949 1052 784 965 719 1066 988 825 1329 819 1188 828 729 818 970 744 810 764 780 1271 1598 1326 1831 951 558 430 142 309 227 218 367 322 362 309 321 1380 1548 1614
1211 1116 1156 1620 1109 886 1334 1287 1659 1496 1865 1527 1525 1516 1177 1221 1100 1091 1360 1335 939 708 765 880 910 631 630 1108 1096 1013 1317 1142 1031 1083 899 903 964 956 792 980 644 939 751 919 1327 1279 940 1036 491 627 494 540 415 230 278 284 150 445 344 1054 887 987
1051 1096 1092 1181 1249 1361 1685 1585 1664 1449 1446 1663 1481 1196 1161 1286 1616 1573 1660 1212 1611 851 945 841 836 922 783 784 1108 1115 986 1020 678 847 782 839 899 629 664 846 787 832 766 1050 974 1014 961 796 895 926 766 518 544 635 325 377 406 262 316 405 1749 1239
1235 1083 1137 1192 1139 1455 1345 1702 1597 1593 1698 1715 1584 1340 1300 1427 1301 1029 1588 1648 1457 1080 943 690 689 1083 955 899 1427 1466 929 694 841 762 986 742 999 816 730 539 604 646 864 920 1010 765 804 952 1054 955 1070 1119 589 371 479 302 389 706 379 314 1781 1254
952 962 855 1292 1466 1498 1651 1502 1017 1294 1794 1471 1129 1010 1653 1470 1421 1217 1319 1526 1534 852 1086 1093 1171 1279 1784 1401 993 878 1247 702 1043 1173 1331 948 1119 789 598 730 586 617 916 1051 1093 906 734 566 635 1064 1105 1134 1108 733 584 345 418 284 211 640 458 1081
889 1092 1720 1714 1282 1510 1366 1423 1532 1257 1304 1597 1425 1496 1122 1282 1057 1343 661 1280 1158 1229 793 1078 1310 1304 1572 1424 1120 748 1031 1232 1041 1054 1424 1499 1324 665 957 658 796 627 893 1148 1160 958 644 732 724 1288 1326 1325 1231 957 970 953 796 866 416 653 724 1086
988 1386 1990 1768 1691 1538 1397 1294 1344 1425 948 1025 1325 1469 1458 1570 1432 1361 1284 1344 1424 1441 1313 969 966 1137 998 1327 1179 1350 1502 1592 1276 1169 1244 604 983 1021 703 838 714 719 812 1013 1038 1290 845 580 517 652 1076 1373 1342 1251 1284 1311 968 714 753 494 757 577
1288 1120 1194 1203 1152 1287 1404 1354 1058 1241 1073 1137 1140 1208 813 589 801 1771 1437 1742 1590 1561 1481 1451 1330 1292 1230 1256 1227 1421 1464 1546 1204 878 1370 979 1220 923 489 708 1142 1050 756 855 959 1153 852 452 644 514 856 784 774 897 1295 1282 801 1155 1084 1068 1070 604
1472 1298 1226 1233 1218 1280 1405 1563 1517 1503 1302 1072 641 573 574 424 390 610 919 1868 1606 1439 1563 1554 1426 1443 1355 927 1275 1403 1560 1511 1090 1030 1073 1114 849 1007 911 1028 1072 1161 1156 951 1169 1131 1404 1312 1120 802 878 919 993 830 885 963 1149 886 1016 1436 1407 1045
1366 1314 1092 1103 1066 1348 1485 1552 1712 1427 961 784 371 470 443 301 378 380 357 323 402 520 1256 1649 1454 1455 1076 1011 816 930 1442 1377 1310 1197 1116 843 734 895 1126 1393 860 1172 1327 882 1100 1105 1114 1248 1197 1316 868 1193 1012 1316 989 720 760 939 939 802 996 1059
1362 1287 1138 1249 1190 1366 1879 1744 1567 1282 664 378 349 293 324 352 472 504 464 468 394 355 433 434 438 464 408 361 383 620 667 1152 684 924 787 1240 1319 952 1008 1076 905 882 1001 973 1026 1027 1262 1196 1302 902 930 973 1284 737 806 658 806 742 822 1040 1142 928
1309 1147 1146 1237 1237 1767 2090 1812 1441 870 457 311 261 271 303 277 216 197 456 391 467 423 290 271 288 196 209 117 178 190 215 191 180 236 351 311 506 1054 1219 1325 1217 612 796 831 982 1058 859 818 1223 879 664 644 908 959 793 819 654 639 844 1010 983 968
1354 1377 1344 1542 1715 2113 2143 2060 1170 857 575 534 492 396 404 255 118 105 244 250 334 237 100 153 3 0 4 152 214 171 139 199 212 232 269 160 185 160 1110 1396 1145 959 577 686 375 816 971 1063 623 721 256 262 368 416 458 248 1082 957 779 703 843 999
1501 1610 1562 1611 1988 2051 1941 1714 1209 908 706 768 545 306 160 178 285 186 93 218 118 111 89 33 33 40 81 213 221 265 246 258 244 237 138 58 103 196 56 132 388 556 896 815 383 973 1032 1065 1221 1068 455 686 423 363 512 631 428 602 682 914 903 785
1898 1421 1649 1907 2098 1669 1556 1450 1208 998 799 544 429 417 348 196 90 224 127 132 134 141 111 63 35 28 32 58 169 173 218 101 94 97 78 29 50 210 336 277 311 242 836 864 655 519 934 1012 952 1152 798 939 476 248 233 432 580 433 351 998 456 442
1484 1621 1837 2226 2018 1668 1510 1263 1120 753 614 495 483 452 402 428 276 69 111 192 185 133 68 92 65 42 118 117 167 143 91 48 11 37 15 84 133 142 159 374 384 680 402 593 741 640 753 970 650 724 812 931 1077 1253 826 780 794 644 503 412 664 623
1211 1588 1760 1856 2177 1742 1202 1062 889 702 522 462 509 750 553 317 152 120 86 70 43 28 17 43 66 27 67 74 79 46 14 1 0 0 0 3 99 128 96 161 214 220 286 645 930 970 597 462 373 388 907 1007 1153 1158 980 670 622 863 363 281 408 339
1233 1746 1717 1519 1656 1205 725 825 943 780 472 374 630 592 311 136 172 175 171 41 17 38 95 29 6 5 0 0 0 0 0 0 0 0 0 6 35 51 38 33 73 205 204 272 345 595 802 815 527 469 772 775 720 518 780 774 789 838 578 561 439 284
1363 1577 1617 1379 1372 1049 830 669 680 1011 326 402 422 236 126 222 223 300 258 60 6 3 4 4 0 0 0 0 0 0 0 0 6 0 0 0 0 0 0 0 13 154 174 134 161 196 242 250 202 225 85 127 210 156 309 552 561 772 644 724 322 193
1122 1167 1351 1224 1382 1327 849 434 305 642 353 502 416 300 260 184 180 182 57 67 47 12 0 0 0 0 0 0 0 0 0 1 4 0 0 0 0 0 0 0 0 6 19 9 3 6 0 0 0 0 0 0 0 3 3 53 171 495 350 365 538 280
1023 1119 1332 1218 1338 1147 791 609 617 633 402 611 515 357 280 254 143 130 149 151 71 10 0 0 0 0 0 0 0 0 0 0 0 0 0 0 0 0 0 0 0 0 0 0 0 0 0 0 0 0 0 0 0 0 0 0 2 39 419 572 254 164
937 1185 1325 1271 1391 1150 1192 1111 1136 827 682 644 515 318 271 227 205 198 129 39 14 0 0 0 0 0 0 0 0 0 0 0 0 0 0 0 0 0 0 0 0 0 0 0 0 0 0 0 0 0 0 0 0 0 0 0 2 0 112 319 21 3
1339 1253 1533 1510 1434 1459 1470 1268 852 521 627 616 474 345 227 258 156 85 29 15 3 0 0 0 0 0 0 0 0 0 0 0 0 0 0 0 0 0 0 0 0 0 0 0 0 0 0 0 0 0 0 0 0 0 0 0 0 0 0 0 1 6
1187 1196 1496 1929 1892 1883 1447 935 712 617 675 643 582 310 276 239 160 36 5 8 1 0 0 0 0 0 0 0 0 0 0 0 0 0 0 0 0 0 0 0 0 0 0 0 0 0 0 0 0 0 0 0 0 0 0 0 0 0 2 3 6 4
1098 1042 1402 1767 1768 1838 1495 1244 1050 927 764 794 610 407 266 246 136 36 24 10 6 5 0 0 2 0 0 0 0 0 0 0 0 0 0 0 0 0 0 0 0 0 0 0 0 0 0 0 0 0 0 0 0 0 0 0 0 0 0 0 0 0
1284 1314 1291 1392 1477 1403 1407 1248 877 1085 1004 602 705 444 252 317 180 67 71 40 21 17 9 0 13 11 0 0 0 0 0 0 0 0 0 0 0 0 0 0 0 0 0 0 0 0 0 0 0 0 0 0 0 0 0 0 0 0 0 0 0 0

ECMWFFLT2_con_mucape_060.txt.gz
CAPE
1067 923 818 920 758 482 421 597 603 512 673 503 230 374 726 623 427 535 829 1438 1465 1630 1628 1612 1517 1286 1630 1424 1450 1368 1262 1166 1024 905 907 871 847 880 951 961 1096 808 860 722 486 708 716 730 951 1028 916 1013 1585 1580 1659 1538 1244 999 1199 927 848 1020
1266 956 829 826 632 318 360 385 494 663 601 696 554 619 852 610 753 742 956 991 1134 2002 1673 1482 1393 1418 1380 1529 1363 1360 1206 1081 980 964 939 922 918 891 1019 1099 1132 1216 665 748 692 635 351 968 1107 1073 1152 1006 1215 1244 1161 1610 1485 695 982 974 1060 1331
1047 812 660 687 576 375 434 677 595 744 678 716 648 671 745 775 557 769 832 978 1171 1456 1969 1850 1358 1411 1405 1222 1396 1314 1116 1013 1130 1004 979 1081 1078 995 1104 1188 1248 1248 1033 948 759 207 175 173 663 1143 1376 1148 627 1079 1102 1603 1058 1308 905 834 1030 1531
1061 853 731 672 535 544 637 621 600 762 674 870 848 689 466 260 417 547 560 763 983 1578 1794 2232 1084 1234 1194 1585 1529 1471 1302 1265 1138 1207 1091 1114 1102 1157 1194 1236 1431 1212 1132 285 62 128 451 504 385 649 502 582 773 867 1342 1174 1007 824 949 1204 1231 1911
977 914 879 878 718 727 838 659 556 674 846 906 730 557 303 280 459 532 648 938 1165 1513 1732 1793 1606 1323 1210 1280 1266 1261 1257 1187 1244 1118 1281 948 1103 853 1223 886 880 974 235 179 151 234 400 802 753 444 697 918 1038 1120 1217 1337 1432 982 951 986 1442 1801
916 882 991 1040 962 1039 1242 892 738 956 1112 834 452 279 374 365 492 879 857 796 1114 1249 1348 1911 1488 1354 1294 1217 1117 1209 1215 1174 1142 1132 1255 1132 1100 994 832 892 516 234 201 109 237 552 330 846 957 928 703 761 826 888 870 1189 1101 1596 914 1313 1640 1860
835 1002 1032 1090 1404 1205 1092 1115 1138 1068 876 417 512 431 728 513 453 696 648 761 960 1238 1505 1609 1498 1496 1348 1321 1153 1362 1655 1752 1460 1589 1451 1149 1191 824 420 452 406 345 319 352 448 219 300 337 503 580 303 457 481 487 1075 626 1382 1371 1033 1090 1750 1946
934 910 845 925 1003 986 1081 925 953 720 883 605 544 504 590 654 637 572 626 718 1506 1182 1152 1307 1428 1467 1375 1321 1405 1211 1571 1420 1441 1128 1510 1258 751 674 674 614 714 418 644 411 348 614 640 264 274 315 481 319 487 515 514 822 1020 1898 1039 1010 1587 1981
1273 899 714 1155 1185 973 1066 856 704 736 706 850 837 718 679 509 560 584 646 1220 1387 1491 1151 1299 1362 1323 1258 1383 1563 1397 1468 1167 1143 1056 1199 861 654 686 399 428 726 729 975 968 1079 829 1173 940 458 224 257 213 307 149 538 651 774 1481 1656 864 1209 1819
1321 755 820 1058 1247 1303 1090 1238 818 955 1030 849 502 317 532 571 550 746 1014 1087 1593 1743 1598 1437 1506 1616 1312 1248 1452 1475 1222 1081 1065 1093 983 725 688 589 632 792 1012 1002 1148 1318 1549 1423 1626 1409 1176 584 230 304 221 216 334 374 884 869 1664 1015 894 1735
909 865 863 944 904 985 1016 1118 1008 901 750 736 497 574 720 730 978 1316 1292 1440 1400 1387 1464 1608 1605 1562 1500 1271 1242 1152 1337 961 1054 760 661 742 918 811 753 566 549 646 881 969 1542 1766 1800 1640 1225 943 717 572 300 71 237 248 516 853 1476 1360 964 1312
948 957 968 810 880 830 732 837 804 616 572 356 449 800 679 971 1213 1275 1228 1180 1068 887 892 1090 1164 1409 1422 1279 1163 1067 922 1212 1047 814 883 906 788 657 824 810 600 846 1054 1190 1385 1656 1302 1048 1047 951 1092 811 612 183 230 208 110 1125 1322 1667 1044 896
1035 1163 939 925 1005 1076 926 821 781 488 510 434 448 678 772 1013 1214 1191 1216 1038 893 747 754 894 1240 1254 1132 1370 1097 944 929 806 842 991 874 998 778 726 699 1114 820 774 918 1190 1279 1190 981 1286 1001 1036 1144 930 698 560 260 85 283 890 1403 1732 1427 1019
1539 1550 1326 1013 1135 1165 1212 884 684 834 712 549 393 538 703 781 992 1261 921 909 859 774 651 908 897 928 1061 1103 804 866 640 859 722 1042 1167 988 722 874 910 1084 1093 1047 1015 1086 1186 889 1083 890 1147 1196 783 1423 1008 605 377 661 241 439 1144 1610 1743 1290
1336 1318 1696 1537 1528 1548 1569 1214 950 650 529 462 545 477 690 774 1071 1270 1280 1180 806 826 942 979 852 1187 1504 1123 747 700 622 742 688 984 1064 1174 1186 1123 960 930 732 832 1014 1093 1320 1238 852 898 922 514 692 1010 901 695 872 552 375 1014 878 917 1752 1745
1200 1374 1454 1518 1882 1627 1602 1623 1308 870 745 608 668 620 484 1057 1075 943 861 765 754 770 984 1158 1126 1232 1633 1138 690 572 834 906 870 1053 1025 1257 1064 1062 926 928 623 697 1098 1079 1108 1446 1038 918 759 740 850 1001 1332 900 856 339 630 644 533 789 757 955
1337 1240 1500 1732 1732 1676 1637 1576 1592 1822 1624 1515 1304 1265 683 1114 1094 806 623 869 874 1026 1003 1114 1270 1220 1388 770 647 831 855 1270 1213 1304 1412 1409 1354 1072 1000 867 868 692 1027 1010 796 1083 1168 802 708 576 822 771 900 1191 946 1199 1000 1152 569 768 1008 1204
1204 1437 1796 1742 1590 1509 1578 1544 1520 1461 1736 1699 1711 1312 1476 1369 1162 1181 973 1094 1212 1237 1346 1261 1127 986 1356 1460 687 1117 1040 1295 1338 1383 1390 1323 1288 1140 1046 1209 1219 966 985 1154 1044 1101 1000 781 570 423 369 539 1076 1474 1531 1078 1632 1051 634 730 634 1216
1560 1934 1915 1777 1483 1424 1433 1407 1539 1654 1821 1762 1674 1422 1132 732 1222 1638 1352 1283 1276 1495 1465 1498 1355 1408 1474 1506 1077 936 1544 968 1076 1274 1360 1154 1174 1097 1130 1234 1292 1298 1290 1180 1314 1005 810 679 484 631 622 868 612 1182 1316 1409 1513 1301 519 355 869 917
1663 1600 1353 1287 1341 1313 1406 1545 1467 1541 1297 1215 882 844 762 747 1169 1215 1430 1201 1189 1886 1215 1339 1334 1394 1390 1467 1351 1361 1268 1280 1322 1201 1154 754 1012 1025 1050 1179 1312 1170 1274 1177 1200 943 683 650 737 700 675 907 1101 1341 1263 1212 710 998 695 546 442 555
1414 1316 1305 1372 1384 1479 1638 1706 1431 1280 1356 1356 638 728 877 614 592 828 698 798 1116 1506 1166 1308 1278 1275 1257 1124 704 1144 1086 1056 1242 1128 1353 1236 1121 1090 1229 1338 1321 1445 1333 1106 621 897 846 694 666 560 783 902 1038 1254 1366 1075 827 926 810 620 544 535
1483 1397 1501 1507 1671 2013 1916 1715 1553 1072 660 449 446 464 471 623 586 537 615 781 906 604 730 938 926 1232 1011 809 824 825 1333 1067 997 1098 1201 1324 1212 746 1150 1387 1441 1546 1039 1046 1060 852 1045 904 612 479 533 717 913 1041 1119 831 664 695 810 790 483 330
1012 1040 1334 1674 1849 2129 2070 1743 1426 926 527 406 637 546 297 522 594 425 718 646 885 884 676 507 682 644 775 670 845 899 905 1078 1051 993 1093 1115 1131 1150 1468 1306 1162 1176 715 773 1192 1133 1376 1343 831 774 825 494 571 390 1069 1113 910 811 776 865 459 386
851 1058 1327 1283 1891 2223 2019 1597 1455 1262 1010 691 499 570 402 271 240 293 549 577 693 1084 608 397 115 63 249 624 721 752 780 713 519 750 557 644 784 904 1344 1369 1104 854 1108 581 703 760 982 1145 668 923 626 598 396 426 255 426 595 592 585 581 631 307
847 874 1052 1736 2118 2132 1669 1317 1148 1026 757 659 701 415 273 379 324 182 350 430 305 360 274 160 62 272 320 514 682 659 569 640 632 659 875 639 538 526 274 315 564 756 946 938 645 806 535 525 704 905 881 574 324 381 425 647 637 474 498 407 467 575
771 781 1182 1596 2079 1902 1437 1182 1178 960 910 704 414 565 710 261 287 419 101 392 258 195 52 244 226 199 205 339 555 528 420 365 644 448 555 432 476 602 423 423 360 508 672 847 915 474 636 784 561 1091 1028 921 1056 888 626 698 670 315 397 305 452 335
827 974 1559 1706 1456 1667 1402 1358 1205 915 677 682 739 919 755 933 397 282 772 427 244 390 194 215 236 356 224 233 326 294 238 428 193 342 345 562 554 432 265 354 550 566 553 699 710 661 637 668 778 629 660 862 830 712 991 676 342 424 288 320 516 414
884 1355 1812 2004 1872 1810 1363 1326 1093 832 888 892 1135 827 747 590 786 511 399 274 290 238 154 211 306 109 232 268 225 52 10 0 325 210 186 146 231 318 310 403 595 683 766 606 743 777 581 690 760 732 674 345 338 707 449 803 633 603 338 137 48 8
1603 1570 1968 1944 1341 1062 1559 1998 1507 946 1032 865 835 662 258 228 349 370 363 527 443 118 190 106 5 5 0 0 0 0 7 129 249 215 41 119 39 11 106 509 646 619 419 547 708 574 362 518 587 405 689 572 573 795 728 873 706 818 400 207 113 71
1584 1596 1689 1736 1392 1349 1448 1434 1125 1076 935 765 592 395 304 486 484 695 466 168 208 191 70 252 108 35 22 0 16 45 28 94 76 5 0 0 0 14 170 234 381 420 456 409 380 336 343 243 24 231 112 238 321 396 287 544 757 462 344 459 109 56
1601 1519 1508 1474 1390 1441 1453 1385 1335 1026 668 590 616 584 416 434 534 372 64 149 164 175 18 4 44 8 0 3 28 36 46 0 1 0 0 0 0 8 214 280 153 89 113 155 84 36 22 53 2 0 0 0 0 0 146 564 508 590 429 351 159 27
1482 1312 1352 1450 1475 1272 1078 1299 1124 1248 831 709 568 341 257 380 342 127 240 284 131 0 0 46 42 58 35 0 8 8 19 11 33 7 0 36 0 0 0 0 0 0 0 0 0 2 1 0 6 0 0 2 0 0 0 281 430 448 499 358 375 13
1236 1378 1270 1508 1360 1198 1055 1058 1003 1287 1082 882 480 354 374 309 254 275 370 147 12 0 0 1 0 0 10 27 42 57 108 131 100 62 69 0 0 0 0 0 0 0 0 0 0 0 0 0 0 0 0 0 0 0 0 15 170 252 193 94 287 0
1197 1375 1309 1333 1130 947 982 1088 1103 1098 1074 740 661 461 406 334 345 339 319 118 43 0 18 8 10 15 0 0 0 0 0 0 0 0 0 0 0 0 0 0 0 0 0 0 0 0 0 0 0 0 0 0 0 0 0 0 95 230 93 154 42 5
1268 1424 1492 1267 1014 959 948 1154 1430 916 836 910 562 543 465 447 399 336 109 87 51 61 0 1 31 0 0 0 0 0 0 0 0 0 0 0 0 0 0 0 0 0 0 0 0 0 0 0 0 0 0 0 0 0 0 0 0 0 31 24 1 1
1472 1457 1379 1303 1145 1161 1085 1317 922 759 828 780 307 546 508 356 551 188 148 157 148 11 29 61 0 0 1 0 0 0 0 0 0 0 0 0 0 0 0 0 0 0 0 0 0 0 0 0 0 0 0 0 0 0 0 0 0 0 0 54 2 65
1548 1448 1478 1387 1306 1308 1204 1179 703 853 979 742 561 670 532 589 329 314 321 216 99 80 117 47 6 10 1 0 2 2 0 0 2 0 0 0 0 0 0 0 0 0 0 0 0 0 0 0 0 0 0 0 0 0 0 0 0 0 0 8 17 0

ECMWFFLT2_con_mucape_063.txt.gz
CAPE
1227 1158 1152 1172 1171 1148 1300 1181 1029 906 802 668 484 698 709 693 558 823 1008 1007 1081 1197 1423 1394 1607 1625 1681 1645 1562 1514 1252 1153 1021 868 874 816 778 778 872 881 807 954 704 668 726 762 627 773 753 804 1021 1178 1352 932 1014 967 890 934 849 1006 1032 856
1068 1071 1028 979 1038 1001 878 636 580 544 580 464 375 497 508 543 598 865 911 967 1037 1222 1366 1331 1474 1586 1604 1732 1477 1399 1243 1044 911 873 868 831 806 888 965 1065 953 1098 863 905 952 514 150 407 782 1065 900 1236 877 838 896 988 877 736 660 919 1071 1247
823 800 725 797 785 757 633 451 532 714 778 578 494 561 623 540 742 842 958 1036 1226 1440 1391 1412 1482 1601 1606 1552 1473 1277 1118 1044 1000 896 938 921 898 1010 1079 923 1159 945 1125 1134 698 136 129 75 136 944 1238 817 496 461 795 953 847 689 812 964 1005 1433
833 744 553 494 536 496 429 458 580 608 467 291 579 615 479 571 850 976 1006 1120 1146 1531 1515 1158 1526 1310 1580 1421 1333 1317 1221 1183 1013 1034 1070 1082 1046 1037 1121 1201 1088 1308 1150 825 213 204 238 294 288 69 217 90 93 623 779 801 789 743 832 1195 1093 1548
820 660 514 394 342 323 384 519 626 522 348 287 568 508 595 744 919 1070 1065 901 1112 1357 1485 1401 1236 1254 1206 1266 1193 1218 1180 1062 1000 1013 1105 895 927 1006 1117 865 894 990 602 148 128 141 244 298 306 296 56 30 456 520 695 862 784 775 963 1148 1254 1571
754 758 530 449 435 843 479 574 545 463 446 392 314 497 656 784 854 756 700 838 1056 1224 1324 1275 1139 1124 1118 1176 1201 1181 1112 1043 982 1018 1057 833 630 708 461 589 402 248 66 39 33 57 380 306 320 350 272 282 365 493 722 812 778 771 1002 1224 1467 1641
984 929 791 818 878 726 667 606 459 22 6 3 0 164 345 385 468 621 694 841 1019 1152 1270 1219 1111 1080 1074 1104 1096 1102 1196 1119 994 1035 917 746 696 544 408 352 394 273 122 139 126 231 673 316 323 310 240 190 309 188 823 904 798 830 1052 1314 1608 1762
1033 974 1067 1026 936 872 764 540 342 362 144 152 10 210 142 214 408 522 516 699 1068 1153 1326 1275 1282 1175 1103 1082 1126 1261 1100 1060 1046 868 839 776 690 635 536 462 475 447 570 634 386 460 937 452 338 195 76 36 0 0 706 825 785 857 1121 1450 1649 1955
1069 1028 1024 1014 906 788 696 590 475 489 468 413 340 329 197 270 463 616 567 808 1360 1058 1222 1220 1242 1186 1201 1151 1099 1042 819 831 799 779 662 616 566 598 496 340 541 549 512 786 1036 1018 1316 955 455 207 132 118 31 0 619 1000 767 863 1181 1434 1533 1968
1046 913 1004 976 876 756 689 674 549 484 415 393 368 604 508 434 520 723 710 1050 1306 1380 1075 1000 1139 1075 1089 1128 1067 970 806 697 707 596 539 574 556 495 501 301 585 716 780 1020 1343 1481 1325 780 560 387 305 270 83 28 1 821 970 774 1020 1290 1436 1900
1065 908 1062 1052 986 872 653 595 520 512 594 496 403 528 686 614 638 603 852 1249 1241 1207 1246 1256 1005 1029 993 1065 1096 937 862 765 643 515 528 520 544 598 395 150 401 558 692 967 1258 1269 795 617 567 546 311 310 234 88 97 232 398 567 679 923 1315 1765
1005 977 1057 1034 919 797 696 703 682 649 697 547 515 598 622 689 870 1045 1088 1181 1331 1335 1158 1236 1147 1132 928 964 946 812 789 646 597 573 576 544 632 607 541 434 458 656 735 1023 1087 851 801 570 492 584 514 386 432 317 128 118 235 431 661 561 837 978
920 1049 1106 1075 955 865 848 842 898 815 549 541 651 606 606 781 1047 1158 1050 1147 1212 1211 1168 1178 1195 1146 1207 881 881 853 875 747 674 609 647 732 638 561 677 582 553 560 826 881 850 593 652 620 511 465 695 772 515 437 399 206 284 473 752 646 730 818
898 1126 1076 983 989 1004 921 793 740 644 579 468 567 655 773 844 1035 976 920 916 798 860 878 903 1069 1058 1039 958 723 802 845 682 702 779 798 744 493 566 665 810 786 727 1183 600 760 521 393 384 340 435 602 672 528 452 363 455 493 542 622 688 592 761
939 951 945 849 820 817 822 726 512 449 484 448 501 636 728 858 925 1082 913 757 592 562 702 834 912 766 1024 887 754 756 685 675 664 880 752 682 679 745 717 685 552 721 771 854 798 624 516 236 312 388 552 705 716 718 435 459 465 524 696 552 478 492
1084 952 1032 1052 809 585 538 532 486 514 475 489 506 558 579 670 720 1065 1010 764 684 754 799 778 672 1025 968 881 675 556 616 617 623 777 827 973 754 590 565 522 443 688 818 834 961 646 534 448 434 413 541 886 725 480 274 352 475 612 642 824 729 590
1198 1316 1396 1380 1112 738 633 637 533 485 472 484 619 710 649 707 724 934 1006 858 632 768 901 812 892 1165 781 720 540 561 648 706 672 818 807 1015 838 637 521 504 420 538 711 670 759 908 751 524 306 311 578 1016 794 527 549 590 460 551 564 538 721 836
1330 1588 1571 1371 1162 1023 884 680 630 669 632 646 633 581 656 658 763 953 876 740 628 826 982 980 1002 843 577 548 481 683 676 744 904 1058 1018 928 766 730 612 700 662 547 731 813 870 627 532 408 349 319 513 657 934 713 706 610 530 451 248 394 663 759
1432 1548 1475 1443 1238 1190 1008 804 715 610 572 508 508 584 609 771 777 721 726 802 901 948 939 977 881 978 1022 610 651 808 910 1004 979 992 829 952 764 774 804 776 857 760 824 904 836 680 520 454 440 443 664 678 797 735 675 490 432 408 166 458 838 861
1502 1494 1401 1419 1362 1239 1008 798 714 515 442 430 448 677 778 802 995 955 1081 1028 1121 1075 1201 975 980 823 762 613 700 1001 767 856 852 905 810 866 822 764 760 717 926 897 839 828 907 661 617 542 492 543 592 664 781 686 624 567 406 260 165 281 341 554
1459 1374 1276 1234 1081 972 1063 983 721 601 563 534 529 626 762 842 886 891 1005 1049 1161 1088 1058 999 794 858 700 887 697 901 924 896 842 704 736 513 666 816 654 758 928 1023 878 900 822 674 589 538 488 604 628 709 655 518 433 314 475 396 204 128 234 493
1263 920 892 935 1017 1010 958 990 913 730 640 546 554 706 831 875 877 1013 1013 889 858 871 755 680 630 707 650 578 629 676 738 867 821 562 818 808 960 775 837 920 956 734 777 626 667 676 655 638 436 479 618 649 487 374 218 124 125 170 243 89 283 416
1044 1045 1093 1248 1302 1370 1276 1021 770 683 615 579 584 781 731 662 802 750 682 605 597 578 595 686 712 608 480 529 617 588 524 635 626 450 618 569 704 640 785 910 894 816 758 656 760 768 849 689 446 435 550 464 423 365 250 141 87 150 128 0 0 91
1106 1218 1327 1472 1626 1614 1418 1189 793 510 341 402 331 258 357 411 419 446 475 469 433 404 402 597 654 482 480 509 505 511 537 321 647 521 523 478 658 507 786 509 351 548 428 474 771 563 741 759 547 393 442 367 149 415 320 149 51 63 99 74 32 74
1071 1212 1406 1616 1602 1515 972 692 406 75 248 230 12 297 271 208 239 314 314 391 448 417 72 19 4 65 106 38 17 0 6 6 0 102 512 231 266 376 722 548 336 383 686 424 579 643 640 619 568 871 302 15 53 256 288 101 88 47 54 4 66 175
1065 1164 1396 1489 1571 1259 508 96 63 12 223 0 0 3 1 0 13 14 0 1 0 2 7 0 0 8 24 23 16 20 0 0 8 2 1 21 16 0 4 67 423 406 609 522 350 382 503 486 739 759 728 751 532 294 196 119 96 37 2 3 14 0
1013 1096 1136 1294 1604 918 369 124 54 55 14 0 2 6 0 0 0 0 3 0 0 0 0 0 0 0 44 145 27 125 86 4 11 4 103 20 6 5 77 198 278 352 510 539 272 384 273 397 588 504 688 613 481 599 285 253 45 15 5 2 0 0
821 772 1002 1285 1437 851 385 274 187 98 8 1 75 42 6 0 0 0 0 0 0 0 0 0 0 0 23 23 0 0 0 0 0 2 0 0 0 8 156 210 317 368 498 425 208 235 351 422 296 324 384 479 543 537 382 50 1 0 0 0 0 0
736 683 1084 1220 1189 936 552 426 162 47 128 278 102 14 6 2 0 0 0 0 0 1 0 0 0 0 0 0 0 0 0 0 0 2 0 0 0 6 106 89 227 218 294 297 275 374 495 594 337 241 416 344 501 520 429 215 104 0 0 0 0 0
827 891 1159 1231 1252 996 712 522 166 205 198 31 3 0 0 0 0 0 0 0 0 0 0 0 0 0 0 0 0 0 0 0 0 0 0 0 0 0 0 0 0 5 0 0 0 1 4 0 164 173 370 470 650 531 368 234 164 14 0 0 0 0
1003 1376 1387 1220 1112 940 909 683 513 334 14 0 0 0 0 0 0 0 0 0 0 0 0 0 0 0 0 0 0 0 0 0 0 0 0 0 0 0 0 0 0 0 0 0 0 0 0 0 0 0 146 460 434 438 447 293 194 0 0 0 0 0
1392 1570 1366 1080 900 834 728 617 430 63 0 0 0 0 0 1 0 0 0 0 0 0 0 0 0 0 0 0 0 0 0 0 0 0 0 0 0 0 0 0 0 0 0 0 0 0 0 0 0 0 0 0 0 159 245 303 202 4 0 0 0 0
1454 1609 1373 1043 790 727 642 474 493 97 29 5 0 0 0 0 0 0 0 0 0 0 0 0 0 0 0 0 0 0 0 0 0 0 0 0 0 0 0 0 0 0 0 0 0 0 0 0 0 0 0 0 0 0 110 324 57 8 0 0 0 0
1330 1567 1358 960 787 721 591 376 636 327 70 2 0 0 0 0 0 0 0 0 0 0 0 0 0 0 0 0 0 0 0 0 0 0 0 0 0 0 0 0 0 0 0 0 0 0 0 0 0 0 0 0 0 0 0 89 48 69 31 0 0 0
1208 1404 1255 951 706 684 371 406 743 462 15 2 9 0 0 0 0 0 0 0 0 0 0 0 0 0 0 0 0 0 0 0 0 0 0 0 0 0 0 0 0 0 0 0 0 0 0 0 0 0 0 0 0 0 0 0 157 177 119 1 0 0
1160 1280 1220 891 653 587 360 507 853 429 75 22 20 1 0 1 0 0 0 0 0 0 0 0 0 0 0 0 0 0 0 0 0 0 0 0 0 0 0 0 0 0 0 0 0 0 0 0 0 0 0 0 0 0 0 0 0 7 48 27 0 0
1158 1216 1121 771 544 458 604 844 713 223 70 11 15 5 4 5 0 0 0 0 0 0 0 0 0 0 0 0 0 0 0 0 0 0 0 0 0 0 0 0 0 0 0 0 0 0 0 0 0 0 0 0 0 0 0 0 0 0 0 0 0 0

ECMWFFLT2_con_mucape_069.txt.gz
CAPE
1669 1607 1513 1532 1566 1481 1411 1528 1353 1343 1271 1170 1315 1393 1463 1498 1468 1493 1395 1334 1388 1442 1404 1293 1347 1340 1406 1342 1382 1354 1181 1026 991 977 968 881 883 912 1051 982 819 724 791 923 850 672 455 616 595 995 1196 1110 1156 831 769 703 704 575 555 525 670 672
1624 1516 1396 1424 1454 1385 1359 1243 1082 1062 1032 1034 1137 1209 1132 1131 1219 1262 1269 1288 1345 1327 1286 1268 1400 1594 1319 1458 1188 1218 1098 971 956 946 862 905 956 1015 976 867 995 962 615 674 364 1 4 401 507 843 1259 918 764 753 799 714 680 570 512 501 667 815
1531 1426 1375 1327 1374 1323 1253 1221 1005 818 859 969 1002 943 996 1001 1080 1148 1170 1175 1203 1274 1236 1226 1271 1356 1372 1340 1199 1101 1078 1011 993 903 941 1020 1098 1091 888 798 799 481 445 330 129 223 18 0 159 831 843 786 686 744 730 686 624 517 506 518 682 1150
1516 1392 1331 1292 1244 1342 1328 1256 1032 761 762 713 712 763 892 900 1067 1133 1090 1064 1190 1218 1113 1190 1607 1611 1553 1224 1253 1275 1176 1063 1026 1030 1265 912 951 589 438 327 411 234 26 40 202 154 9 0 89 732 775 716 637 731 702 672 552 503 501 793 762 1527
1426 1388 1281 1196 1258 1277 1257 1081 798 746 844 703 596 621 818 872 1036 1121 1143 1189 1257 1170 1183 1230 1269 1271 1139 1023 946 1003 915 890 955 951 819 652 647 424 343 227 48 67 153 158 316 161 59 0 54 673 682 587 635 719 684 635 534 504 534 755 892 1690
1363 1324 1199 1163 1109 1048 982 852 687 799 716 504 70 568 790 862 971 1051 1086 1207 1238 1187 1204 1176 1100 964 953 938 928 954 872 864 914 925 611 490 575 390 238 231 169 162 400 468 379 190 185 107 0 600 602 485 538 621 642 574 531 494 627 726 1137 1594
1319 1250 1162 1137 1083 1031 812 649 581 295 0 0 3 355 776 877 952 1013 1121 1215 1096 1098 1096 1053 926 886 918 959 984 958 917 876 893 769 686 631 572 474 396 280 233 331 768 550 362 200 204 204 73 272 568 429 468 612 615 586 528 557 661 770 1413 1540
1378 1379 1259 1174 1102 954 690 543 13 231 31 61 62 586 705 848 998 1101 1157 1137 1039 1072 1070 948 856 902 945 1009 992 952 905 901 866 796 601 504 562 532 449 381 277 840 736 434 315 224 219 195 147 229 263 444 538 610 605 541 498 555 676 905 1388 1609
1365 1342 1274 1143 991 754 426 186 172 56 1 262 41 560 637 733 934 1024 1019 1028 1046 1085 1036 948 744 824 890 950 979 941 873 892 836 696 511 598 508 366 226 286 598 845 502 341 255 205 224 204 178 359 468 502 587 620 560 518 640 676 760 1069 1300 1519
1265 1266 1161 1003 773 428 373 283 169 5 65 445 502 555 559 638 827 939 1000 1022 1001 984 948 843 612 771 859 899 945 1015 955 891 834 756 678 580 450 332 298 494 876 807 461 298 268 269 242 230 56 369 515 555 596 591 544 676 753 807 950 1097 1102 1323
1158 1056 895 717 578 516 447 262 43 0 112 310 488 546 533 652 827 839 1040 1087 965 922 885 775 664 872 981 988 1043 1076 986 920 824 828 671 470 458 448 337 474 792 747 465 331 289 305 304 248 246 314 454 599 650 598 609 762 847 947 1032 1067 1040 1021
967 922 870 712 617 571 433 186 25 123 17 244 452 528 491 698 794 750 1002 1104 1055 900 858 843 877 972 1070 1083 1076 1065 960 891 814 642 536 468 488 434 357 502 679 576 465 372 346 343 328 302 253 241 396 508 644 633 663 808 904 1005 1039 999 968 954
995 937 809 709 633 559 372 131 4 93 22 97 528 619 555 728 768 691 898 1074 1113 1065 996 977 1025 964 892 946 986 968 880 670 613 634 579 492 482 516 407 570 666 556 458 452 436 367 332 281 283 142 116 407 579 591 680 820 925 1021 1006 969 915 917
996 945 809 740 658 510 363 4 13 129 137 116 487 702 688 657 476 636 837 991 1126 1109 1109 1044 953 896 882 953 1082 1028 868 743 650 568 539 519 556 530 430 546 518 266 88 249 411 366 330 29 254 269 112 249 515 546 600 770 927 1029 1007 955 933 944
1009 951 866 790 683 558 412 76 105 217 420 385 426 729 596 474 561 755 950 987 1105 1172 1090 1070 1027 984 1006 1030 1056 962 769 768 650 596 604 601 549 550 554 559 460 0 0 0 0 30 33 20 31 61 32 18 52 112 471 594 748 896 960 951 919 937
1035 950 916 866 696 589 507 494 503 474 523 458 253 326 355 535 712 907 1095 1124 1094 1177 1194 1142 1075 1080 1059 986 952 854 788 744 631 666 596 447 443 587 542 531 503 0 0 0 4 8 1 19 10 9 0 1 307 362 369 412 511 671 835 865 862 914
1069 954 1000 940 725 658 615 690 609 543 569 526 484 419 410 557 726 956 1139 1233 1283 1289 1213 1241 1196 1152 1064 1000 895 781 740 652 678 660 514 548 600 609 500 551 640 505 22 16 7 292 34 11 161 20 25 64 362 439 451 412 428 515 663 757 806 888
1104 1024 1065 959 756 754 798 763 640 612 662 511 587 717 699 803 864 914 959 1127 1211 1171 1201 1173 1163 1096 1023 992 847 721 619 612 760 687 670 656 576 462 73 585 630 569 326 25 223 348 319 334 312 292 173 74 45 372 488 532 533 550 550 655 740 868
1150 1145 1153 925 938 935 800 710 639 691 714 608 642 679 753 822 807 843 881 889 863 812 888 972 1057 1028 954 898 784 622 583 552 815 784 784 735 621 454 124 547 592 596 413 226 346 385 362 414 413 402 373 345 297 60 106 461 536 451 429 497 724 801
1262 1240 1147 1038 1064 964 756 681 739 715 639 564 681 729 773 897 989 1024 930 841 746 714 770 797 932 983 960 803 604 556 609 535 663 733 833 810 687 553 533 509 674 525 296 22 395 456 404 437 464 462 438 418 416 154 95 59 436 549 523 475 557 628
1272 1231 1131 1112 1033 840 770 725 763 722 592 565 732 836 894 948 1041 1132 1084 893 726 853 866 830 1070 1095 724 511 557 616 678 830 920 922 892 769 674 650 646 591 664 496 6 7 401 527 513 502 481 442 414 412 403 366 174 12 6 315 653 636 536 607
1240 1234 1210 1170 955 882 841 799 804 692 584 592 651 728 733 802 793 963 1024 880 750 988 974 998 1106 900 649 545 675 717 737 897 1000 909 897 737 687 704 647 617 612 469 327 12 191 472 470 470 363 11 198 213 116 44 40 12 0 85 216 353 564 683
1230 1225 1315 1234 1102 1088 954 842 715 641 616 600 710 746 797 796 897 878 824 794 871 1033 1092 1107 1018 760 765 604 854 785 851 973 908 785 747 795 757 734 576 701 546 412 124 302 193 383 393 111 0 249 0 0 0 0 111 198 60 98 142 275 417 457
1151 1257 1293 1225 1209 1115 919 770 618 632 620 689 726 763 872 888 984 968 880 930 955 1067 1061 972 928 802 795 687 876 833 876 926 872 847 725 651 711 738 723 746 695 574 476 384 300 328 326 320 0 0 34 0 0 0 0 1 4 98 47 192 370 348
1151 1282 1254 1177 1057 899 797 740 696 710 677 641 674 866 956 1008 1079 1062 1024 1092 1110 1184 1146 966 826 727 714 723 900 865 876 875 812 666 606 592 744 674 726 898 666 545 512 445 345 351 368 214 131 115 0 0 0 0 0 1 3 18 71 82 117 273
1135 1214 1164 1035 861 870 901 748 743 640 621 686 869 955 1004 968 969 992 1068 1093 1010 1075 1081 853 713 677 656 716 853 846 736 758 666 448 488 612 692 590 772 776 721 596 535 495 447 422 485 408 362 268 113 0 0 0 0 2 0 0 36 95 152 165
1150 1108 1056 1077 1099 1103 758 734 563 580 664 828 953 945 926 933 907 915 985 942 826 798 763 684 608 522 605 636 598 510 398 423 483 388 144 345 436 456 519 483 429 533 579 556 478 532 461 449 438 420 338 81 227 0 0 0 0 3 20 48 144 170
1239 1260 1272 1307 1305 1063 708 688 584 608 712 791 734 678 731 756 709 724 792 680 630 668 597 464 402 433 411 341 0 0 0 0 0 0 0 0 82 189 259 314 218 301 409 420 440 451 435 469 446 368 325 195 91 52 0 0 0 0 0 31 31 108
1302 1352 1417 1482 1394 894 708 673 598 601 664 634 542 509 518 451 391 403 476 439 518 494 338 293 296 271 67 0 0 0 0 0 0 0 0 0 0 0 209 208 230 226 308 323 357 399 406 471 436 327 308 250 0 0 0 0 0 0 0 0 12 102
1233 1209 1428 1485 1280 845 676 671 665 603 677 547 473 403 346 297 315 316 327 356 393 278 206 196 148 0 0 0 0 0 0 0 0 0 0 0 0 232 229 211 190 176 156 180 187 273 450 463 375 357 350 0 0 0 0 0 0 0 0 0 0 53
1060 1196 1347 1392 1096 982 764 752 724 697 605 476 363 259 228 246 182 215 306 327 244 138 161 155 126 13 0 0 0 0 0 0 0 0 0 0 0 34 32 159 157 115 112 129 178 235 270 266 302 369 338 0 0 0 0 0 0 0 0 0 1 1
867 1130 1226 1080 1096 972 939 694 704 755 554 376 234 176 249 162 124 186 229 232 181 155 146 66 0 0 0 0 0 0 0 0 0 0 0 0 0 0 0 0 0 0 0 0 0 46 135 150 265 387 357 0 0 0 0 0 0 0 0 0 0 0
748 873 1042 864 891 936 1016 796 578 685 587 346 158 205 259 166 180 198 224 206 158 118 7 0 0 0 0 0 0 0 0 0 0 0 0 0 0 0 0 0 0 0 0 0 0 0 8 162 269 359 406 240 0 253 0 0 0 0 0 0 0 0
800 722 869 885 869 947 1001 967 721 629 531 412 227 233 219 150 140 140 113 90 38 0 0 0 0 0 0 0 0 0 0 0 0 0 0 0 0 0 0 0 0 0 0 0 0 0 0 0 241 343 388 395 332 117 0 0 0 0 0 0 0 0
962 750 948 1063 909 841 816 833 788 638 544 447 294 230 0 0 0 0 0 0 0 0 0 0 0 0 0 0 0 0 0 0 0 0 0 0 0 0 0 0 0 0 0 0 0 0 0 0 0 0 212 371 94 0 0 0 0 0 0 0 0 0
1147 985 1096 996 936 812 668 636 642 629 580 454 276 126 0 130 114 91 48 0 0 0 0 0 0 0 0 0 0 0 0 0 0 0 0 0 0 0 0 0 0 0 0 0 0 0 0 0 0 0 0 139 0 44 0 0 0 0 0 0 0 0
1049 943 1010 908 935 952 598 554 585 584 485 266 192 91 123 131 134 84 58 0 0 0 0 0 0 0 0 0 0 0 0 0 0 0 0 0 0 0 0 0 0 0 0 0 0 0 0 0 0 0 0 0 0 0 0 0 0 0 0 0 0 0

ECMWFFLT2_con_mucape_075.txt.gz
CAPE
1890 1909 1962 2108 2325 2073 2014 2040 2054 1967 2037 2130 2130 1902 1937 1739 1614 1399 1488 1586 1385 1845 1976 1675 1544 1358 889 836 1205 1260 1169 1055 977 885 921 1090 1025 821 627 604 697 752 620 594 664 734 848 1232 1524 1677 1427 1309 1176 1004 946 966 995 918 858 700 656 488
1789 1843 1909 1971 2139 1982 2013 1692 2124 2098 1698 1841 1954 1849 1715 1635 1639 1857 1568 1800 1968 1918 1944 1785 1653 1091 1394 1016 1048 1113 931 814 801 793 888 819 722 641 600 649 712 670 439 423 436 485 699 1204 1386 1686 1474 1375 1067 1018 1052 1111 1081 961 892 709 624 621
1789 1851 1953 2001 2038 2120 2242 2207 2027 1920 1635 1606 1732 1976 2009 1746 1981 2031 2009 2002 2227 2086 1990 1968 1868 1360 1159 994 914 999 902 792 728 862 667 665 731 674 593 606 593 415 410 435 585 684 549 820 1307 1670 1669 1414 1279 1002 1094 1147 1154 1096 955 777 697 775
1703 1700 1819 1870 1961 1840 1902 1773 1732 1561 1601 1620 1737 2033 1784 1713 1703 1644 1892 1895 2070 1667 1653 1643 1164 1167 1117 990 980 1099 873 859 710 920 805 549 472 454 497 557 437 341 318 373 572 383 487 577 1264 1650 1689 1476 1068 1149 1058 1096 1070 1114 1061 832 805 867
1720 1699 1709 1823 1764 1638 1500 1403 1308 1322 1341 1358 1512 1410 1522 1620 1434 1301 1268 1266 1180 1195 1159 1174 1036 1020 877 937 978 938 895 884 771 534 473 493 430 291 500 545 659 572 572 584 554 657 581 474 686 1242 1742 1318 980 1005 1057 1085 1152 1093 1160 950 1055 922
1691 1744 1710 1615 1441 1331 1292 1171 992 1197 1431 1448 1232 1323 1251 1445 1527 1410 1210 1206 1225 1304 1272 1027 936 929 903 840 810 832 768 796 683 552 508 486 639 861 801 937 832 583 509 486 565 765 762 721 616 1084 1328 1126 970 1034 1054 977 1101 1202 1279 1060 1107 1000
1746 1680 1666 1600 1389 1262 1324 1135 994 1167 1151 1130 1140 1148 1250 1410 1415 1341 1209 1244 1321 1277 1034 875 762 922 824 833 806 720 732 891 785 819 776 749 871 972 971 894 937 939 714 540 458 514 564 650 654 935 958 869 960 1078 1175 1014 1060 1212 1383 1064 1290 1308
1767 1695 1523 1364 1316 1208 1230 1181 851 1099 982 955 1055 1129 1197 1452 1425 1621 1440 1414 1456 1172 937 790 956 905 886 956 854 808 850 940 826 600 519 457 809 895 840 592 426 695 899 648 523 505 475 463 690 964 1143 1013 1080 1277 1216 1035 1092 1166 1380 1195 1363 1305
1539 1447 1382 1320 1227 1191 1184 1106 752 765 811 948 1063 1016 1104 1284 1248 1298 1363 1488 1446 1261 1007 1005 864 752 947 971 862 837 800 884 781 485 373 338 426 526 587 697 497 481 982 1244 1172 778 619 635 825 1178 1367 1401 1308 1300 1221 1185 1231 1232 1409 1272 1467 1162
1598 1416 1394 1222 1045 1156 1205 846 791 739 862 871 954 985 1112 1076 1334 1212 1244 1351 1457 1121 988 802 828 931 1265 848 782 813 780 815 801 714 725 562 282 434 523 591 556 527 933 1206 1304 1044 945 844 758 959 1246 1375 1444 1324 1301 1217 1173 1063 1328 1478 1704 1193
1437 1224 1257 1270 1010 1119 1073 939 806 770 1024 939 1072 1164 969 1083 976 1138 1337 1185 1178 916 807 802 767 820 1090 760 830 868 933 826 908 702 566 336 279 337 423 404 452 642 923 948 1031 918 988 1082 1112 947 1141 1292 1495 1561 1393 1343 1170 1145 1171 1699 1652 1460
1429 1314 1025 980 1086 1222 1020 787 854 669 607 1018 1184 1181 996 896 1022 877 1088 948 1086 986 1054 887 803 1122 1164 1000 1010 914 791 891 593 426 430 424 495 475 470 379 356 477 768 866 732 663 782 1100 1043 1047 1047 1214 1423 1528 1660 1544 1188 1275 1610 1820 1890 1791
1545 1288 1086 978 1009 1116 914 840 753 580 587 658 1259 971 850 765 715 801 1047 1052 1014 944 940 1026 922 1058 1102 1233 1067 774 720 689 520 464 430 417 441 535 533 437 418 498 844 798 744 670 702 812 853 807 1057 1174 1383 1280 1207 1234 1287 1284 1626 1694 1644 1778
1441 1287 1235 967 919 896 844 865 620 426 564 954 943 903 833 757 710 807 1098 1094 1044 1103 1010 1242 810 1126 1156 998 921 845 794 649 516 522 446 444 556 702 725 687 607 640 445 597 578 671 850 612 501 518 650 686 805 956 1153 1073 1105 1094 1242 1798 1541 1186
1005 840 991 1023 881 916 854 798 606 437 646 709 844 835 722 917 1001 1034 1142 1161 1122 1212 1328 1343 1316 1391 1431 1261 1186 1060 776 608 580 509 462 456 484 520 711 695 640 651 442 437 457 303 336 421 472 539 565 803 803 794 1116 1039 1158 1140 1307 1388 1031 798
986 1015 955 924 1023 900 819 727 503 417 729 797 711 834 750 1053 896 962 1191 1109 1161 1252 1301 1498 1576 1528 1577 1352 1375 1314 889 648 569 504 483 492 517 469 435 418 423 623 655 580 654 332 299 312 426 448 627 765 1000 987 956 1028 922 982 1257 650 617 817
1154 1111 1060 1079 978 931 766 487 428 474 683 628 680 649 718 797 794 942 1084 1173 1211 1334 1209 1518 1510 1331 1417 1338 908 863 745 703 568 528 513 551 541 474 498 422 346 352 666 645 523 374 315 334 327 323 459 537 577 595 827 987 1026 1147 964 665 701 818
1289 1225 1066 961 973 876 702 552 411 443 448 510 620 837 730 778 751 920 1096 1414 1472 1254 1069 1386 1318 1200 1241 892 914 812 711 663 648 591 646 718 716 516 526 475 416 313 301 452 489 442 339 251 291 336 335 339 428 511 622 793 878 899 933 683 547 708
1333 1187 1035 1014 980 709 598 476 341 444 456 563 652 715 647 634 780 984 1200 1334 1524 1563 1405 1386 1368 1263 1360 1276 1063 764 654 607 604 689 714 530 533 557 628 554 460 248 242 393 468 433 410 334 318 324 289 426 554 622 520 548 663 874 768 651 594 579
1307 1071 986 915 808 731 634 493 385 337 338 369 448 545 606 743 708 980 1183 1346 1372 1379 1377 1505 1403 1416 1496 1275 1052 768 642 594 593 621 604 469 536 562 624 525 350 315 293 288 394 380 350 346 312 267 221 423 403 564 464 486 721 668 636 646 570 521
1224 953 872 858 813 807 685 572 548 492 492 456 514 632 654 804 824 1123 1202 1332 1342 1361 1370 1447 1330 1335 1346 984 896 701 762 637 625 841 685 639 625 697 702 533 334 320 342 314 321 349 402 394 331 205 316 399 354 394 517 461 553 522 587 923 869 488
1058 903 911 992 953 910 805 744 666 556 511 507 537 580 528 619 868 1049 1079 1102 1286 1310 1352 1354 1225 1353 1073 1008 897 727 798 828 856 867 843 704 436 562 520 539 453 401 515 324 298 372 485 517 461 426 280 192 230 262 312 357 317 440 879 1002 567 362
1129 913 861 898 991 959 878 845 822 573 538 589 671 724 717 769 824 875 1073 1086 1121 1112 1171 1153 1144 1118 1102 1251 1294 908 872 841 880 945 955 837 762 704 868 841 756 572 358 405 311 412 414 738 629 466 465 408 369 320 250 233 239 448 636 688 814 698
1116 1032 978 939 1044 1114 912 961 843 535 564 559 605 659 742 765 793 918 1023 934 932 1049 1067 1194 1156 1158 1238 1302 1133 1052 981 1012 975 962 911 798 799 759 827 858 734 627 490 382 276 317 514 504 609 454 578 480 213 241 166 96 146 282 696 677 813 758
1144 1043 1059 1008 1157 1036 800 615 551 607 534 516 569 607 683 793 895 1050 969 965 978 1126 1155 1159 1136 1292 1176 1138 1016 1131 1242 1486 1279 1064 1040 983 812 826 912 768 793 781 593 570 407 474 273 403 563 667 509 106 153 221 345 190 147 64 328 469 763 668
1176 1108 1100 1071 1111 1013 709 649 677 602 598 675 729 763 900 914 888 1027 1120 958 1025 1180 1143 1180 1129 1342 1088 1092 1079 1194 1319 1323 1219 1097 1272 1354 1182 1065 1271 1064 928 961 832 750 770 525 482 394 512 382 222 498 688 636 326 213 150 21 58 272 474 531
1231 1118 1121 1049 1042 1000 743 750 737 917 926 878 885 934 1063 1019 1104 1170 1093 1081 1132 1217 1162 1209 1166 1223 1319 1145 1375 1109 1355 1642 1503 1640 1417 1468 1377 1405 1310 1259 1089 999 1034 907 855 801 754 519 354 263 216 367 821 576 580 208 143 66 35 139 125 140
1172 1155 1092 1053 944 899 819 905 1105 1216 1042 1076 1058 971 965 989 1049 1045 1132 1128 1172 1142 1033 1105 1016 982 1254 1152 1168 1116 1345 1533 1210 949 944 982 1328 1444 1456 1415 1163 974 1066 1047 1068 1110 1084 800 824 579 270 515 634 706 801 513 302 234 231 89 8 60
1177 1144 1017 1017 979 1024 979 1163 1048 1042 1059 1091 1183 999 877 846 989 1018 1121 1078 1155 1037 1019 813 948 1053 984 1020 1074 1182 1200 1202 1180 1012 796 754 951 1025 1408 1484 1116 1090 1086 1140 1205 1296 1177 1040 1084 941 417 627 614 531 364 609 513 393 336 108 12 89
1133 972 968 815 888 1084 913 887 1031 1138 1151 871 780 846 1006 1050 1130 1200 1181 1050 940 874 734 716 662 678 707 715 731 760 855 1001 1093 780 566 682 889 1054 1245 1368 1338 1266 1270 1233 1185 1148 1200 1225 1145 1026 840 660 470 431 323 308 366 266 362 230 94 55
1007 981 918 857 868 1037 847 1042 1252 1315 1147 964 924 980 1056 1080 974 1011 938 729 738 579 542 626 610 512 515 376 476 476 655 691 757 656 466 598 941 849 1036 1143 996 993 1113 1122 1025 1158 1050 1040 1056 789 802 638 678 632 586 382 293 293 294 188 80 112
929 784 825 666 1040 807 847 972 998 1068 1158 997 980 1057 1163 1098 1017 1031 799 538 378 327 307 302 484 441 375 378 490 506 532 545 413 437 455 493 485 485 493 433 580 769 849 949 1001 983 1114 1081 988 1056 878 763 906 771 674 554 452 560 408 230 130 38
678 840 720 538 653 598 638 591 657 665 718 816 981 960 946 965 868 718 461 355 288 359 218 340 500 525 408 452 472 464 437 477 323 230 115 109 116 58 206 301 421 463 562 633 782 965 996 1098 1051 1152 1078 760 608 431 464 542 490 541 470 338 160 58
757 878 828 776 691 571 579 621 587 516 767 995 934 887 818 766 660 483 420 432 486 463 423 621 433 679 362 282 424 462 377 248 97 20 25 26 4 0 16 49 49 84 61 177 300 715 954 994 1017 1018 843 568 408 372 396 416 536 602 400 311 181 43
568 848 894 689 644 594 619 706 635 477 794 802 817 778 593 578 510 411 509 600 495 394 434 271 344 371 80 259 125 73 131 48 3 2 0 0 0 0 0 0 0 0 0 0 19 251 498 666 743 688 761 623 434 379 339 376 496 510 442 400 219 36
395 861 1030 824 618 639 669 647 587 560 546 442 507 410 326 356 363 372 431 539 340 307 325 214 149 84 50 54 31 41 3 0 0 0 0 0 0 0 0 0 0 0 0 0 0 120 248 508 750 847 808 603 398 279 310 367 432 479 336 384 218 62
428 896 1098 1033 1070 557 544 576 636 565 487 403 361 396 268 104 204 272 358 446 309 98 88 147 41 21 4 1 10 0 0 0 0 0 0 0 0 0 0 0 0 0 0 0 0 0 0 270 399 503 609 594 546 205 247 421 386 418 400 262 117 38